Miscellaneous Local Product
Issued by NWS Hastings, NE

Home | Current Version | Previous Version | Text Only | Print | Product List | Glossary On
Versions: 1 2 3 4 5 6 7 8 9 10 11 12 13 14 15 16 17 18 19 20 21 22 23 24 25 26 27 28 29 30 31 32 33 34 35 36 37 38 39 40 41 42 43 44 45 46 47 48 49 50
000
AXUS43 KGID 200802
MISGRI

GID CWA HOURLY WEATHER ROUNDUP
NATIONAL WEATHER SERVICE HASTINGS NE
300 AM CDT MON OCT 20 2014

NOTE: "FAIR" INDICATES FEW OR NO CLOUDS BELOW 12,000 FEET WITH NO
SIGNIFICANT WEATHER AND/OR OBSTRUCTIONS TO VISIBILITY.

...SOUTH CENTRAL NEBRASKA...

CITY           SKY/WX    TMP DP  RH WIND       PRES   REMARKS
GRAND ISLAND   CLEAR     46  42  86 W3        30.04R
HASTINGS       CLEAR     49  43  80 CALM      30.04R
KEARNEY        CLEAR     48  43  81 CALM      30.06R
ORD            CLEAR     41  37  86 NW7       30.05R
YORK           CLEAR     45  45 100 W3        30.02R
AURORA         CLEAR     47  44  89 W6        30.02S
LEXINGTON      CLEAR     42  40  93 W7        30.07S
HOLDREGE       CLEAR     46  43  89 CALM      30.06S
HEBRON         CLEAR     46  43  91 CALM      30.03R

...NEBRASKA PANHANDLE...

CITY           SKY/WX    TMP DP  RH WIND       PRES   REMARKS
CHADRON        CLEAR     37  35  92 CALM      30.10S
ALLIANCE       CLEAR     34  31  88 CALM      30.13S
SCOTTSBLUFF    CLEAR     39  36  89 N6        30.13S WCI  35
SIDNEY         CLEAR     41  34  76 W9        30.14F

...WESTERN AND NORTH CENTRAL NEBRASKA...

CITY           SKY/WX    TMP DP  RH WIND       PRES   REMARKS
VALENTINE      CLEAR     37  33  85 W3        30.09R
AINSWORTH      CLEAR     42  36  77 W6        30.08S
ONEILL         CLEAR     45  40  80 NW5       30.06R
BROKEN BOW     CLEAR     42  36  79 CALM      30.06S
IMPERIAL       CLEAR     40  34  79 N7        30.12R
NORTH PLATTE   CLEAR     38  34  85 CALM      30.09S
MCCOOK         CLEAR     41  38  89 SW5       30.09R

...EASTERN NEBRASKA...

CITY           SKY/WX    TMP DP  RH WIND       PRES   REMARKS
NORFOLK        CLEAR     46  40  79 W3        30.01R
SO SIOUX CITY  CLEAR     41  39  93 CALM      30.00R
TEKAMAH        CLEAR     47  43  86 N6        29.98R
COLUMBUS       CLEAR     45  39  81 W3        30.02S
ALBION         CLEAR     41  37  84 NW7       30.03S
OMAHA EPPLEY   CLEAR     51  46  83 CALM      29.98R
OFFUTT AFB     CLEAR     52  52  99 W3        29.97R
MILLARD        CLEAR     49  47  94 CALM      29.98R
LINCOLN        CLEAR     49  45  86 CALM      30.01S
NEBRASKA CITY  CLEAR     55  47  75 W9        29.99R
BEATRICE       CLEAR     48  46  93 CALM      30.02R
FALLS CITY     CLEAR     53  48  83 W3        29.99S

...NORTHERN KANSAS...

CITY           SKY/WX    TMP DP  RH WIND       PRES   REMARKS
GOODLAND       CLEAR     42  39  89 W5        30.13S
HILL CITY      CLEAR     43  41  93 CALM      30.06S
NORTON         SUNNY     39  36  87 NW3       30.05S
PHILLIPSBURG   CLEAR     46  45  93 W6        30.05S
SMITH CENTER   CLEAR     45  43  93 N3        30.05R
BELOIT         CLEAR     45  45 100 CALM      30.02S
HAYS           CLEAR     50  45  81 N5        30.04R
RUSSELL        CLEAR     51  49  92 N5        30.02R
CONCORDIA      CLEAR     50  49  96 W5        30.02S
SALINA         CLEAR     52  48  86 CALM      30.02S
TOPEKA         CLEAR     52  50  93 CALM      30.02S



USA.gov is the U.S. government's official web portal to all federal, state and local government web resources and services.